East Wenatchee, WA

2:46 PM PST on February 24, 2017 (GMT -0800)
Pangborn Memorial

Weather History for KEAT - June, 2007

Change the Weather History Date:

Wednesday, June 27, 2007

  Actual Average Record
Temperature  
Mean Temperature 64 °F 69 °F  
Max Temperature 82 °F 81 °F 105 °F (2015)
Min Temperature 46 °F 57 °F 47 °F (2012)
Degree Days  
Heating Degree Days 1 1  
Month to date heating degree days 177 55  
Since 1 June heating degree days 55  
Since 1 July heating degree days 7037 5769  
Cooling Degree Days 0 5  
Month to date cooling degree days 26 92  
Year to date cooling degree days 26 15  
Since 1 June cooling degree days 92  
Growing Degree Days 20 (Base 50)    
Moisture  
Dew Point 39 °F    
Average Humidity 33    
Maximum Humidity 46    
Minimum Humidity 21    
Precipitation  
Precipitation 0.00 in 0.01 in 0.42 in (2001)
Month to date precipitation 0.82 0.56  
Year to date precipitation 6.62 4.21  
Snow  
Snow 0.00 in - - ()
Month to date snowfall 0.0  
Snow Depth 0.00 in    
Sea Level Pressure  
Sea Level Pressure 29.93 in    
Wind  
Wind Speed 7 mph (WNW)    
Max Wind Speed 12 mph    
Max Gust Speed -    
Visibility 10 miles    
Events      
T = Trace of Precipitation, MM = Missing Value Source: NWS Daily Summary

Daily Weather History Graph

Daily Weather History Graph

Search for Another Location

Airport or City:

Trip Planner

Search our weather history database for the weather conditions in past years. The results will help you decide how hot, cold, wet, or windy it might be!

Date:

Astronomy

Jun. 27, 2007 Rise Set
Actual Time 5:05 AM PDT 9:01 PM PDT
Civil Twilight 4:25 AM PDT 9:42 PM PDT
Nautical Twilight 3:29 AM PDT 10:37 PM PDT
Astronomical Twilight 2:03 AM PDT 12:03 AM PDT
Moon 7:05 PM PDT (6/27) 2:19 AM PDT (6/27)
Length of Visible Light 17h 16m
Length of Day
15h 55m
Waxing Gibbous, 92% of the Moon is Illuminated
Jun 27
Waxing Gibbous
Jun 30
Full
Jul 7
Last Quarter
Jul 14
New
Jul 21
First Quarter

Hourly Weather History & Observations

Time (PDT) Temp. Dew Point Humidity Pressure Visibility Wind Dir Wind Speed Gust Speed Precip Events Conditions
12:55 AM 68.0 °F 36.0 °F 31% 29.99 in 10.0 mi NW 9.2 mph - N/A   Clear
1:55 AM 64.9 °F 36.0 °F 34% 29.99 in 10.0 mi WNW 11.5 mph - N/A   Clear
2:55 AM 64.0 °F 36.0 °F 35% 29.99 in 10.0 mi NW 8.1 mph - N/A   Clear
3:55 AM 59.0 °F 37.9 °F 46% 29.99 in 10.0 mi Calm Calm - N/A   Clear
4:55 AM 59.0 °F 37.9 °F 46% 29.99 in 10.0 mi West 6.9 mph - N/A   Clear
5:55 AM 60.1 °F 37.9 °F 44% 30.00 in 10.0 mi West 10.4 mph - N/A   Clear
6:55 AM 61.0 °F 39.0 °F 44% 30.01 in 10.0 mi NNW 5.8 mph - N/A   Clear
7:55 AM 63.0 °F 39.0 °F 41% 30.01 in 10.0 mi West 9.2 mph - N/A   Clear
8:55 AM 66.0 °F 39.0 °F 37% 30.01 in 10.0 mi West 6.9 mph - N/A   Clear
9:55 AM 68.0 °F 39.9 °F 36% 29.99 in 10.0 mi West 10.4 mph - N/A   Clear
10:55 AM 72.0 °F 39.0 °F 30% 29.98 in 10.0 mi West 10.4 mph - N/A   Clear
11:55 AM 73.9 °F 39.9 °F 29% 29.97 in 10.0 mi West 4.6 mph - N/A   Clear
12:55 PM 77.0 °F 39.0 °F 25% 29.95 in 10.0 mi SW 4.6 mph - N/A   Clear
1:55 PM 77.0 °F 39.9 °F 26% 29.92 in 10.0 mi West 4.6 mph - N/A   Clear
2:55 PM 80.1 °F 37.0 °F 21% 29.91 in 10.0 mi WNW 5.8 mph - N/A   Clear
3:55 PM 80.1 °F 39.9 °F 24% 29.89 in 10.0 mi SW 3.5 mph - N/A   Clear
4:55 PM 81.0 °F 37.0 °F 21% 29.88 in 10.0 mi Calm Calm - N/A   Clear
5:55 PM 80.1 °F 39.0 °F 23% 29.87 in 10.0 mi Calm Calm - N/A   Clear
6:55 PM 78.1 °F 52.0 °F 40% 29.86 in 10.0 mi Calm Calm - N/A   Clear
7:55 PM 81.0 °F 39.9 °F 23% 29.83 in 10.0 mi Calm Calm - N/A   Clear
8:55 PM 73.0 °F 46.0 °F 38% 29.85 in 10.0 mi North 4.6 mph - N/A   Clear
9:55 PM 73.9 °F 37.0 °F 26% 29.85 in 10.0 mi Calm Calm - N/A   Clear
10:55 PM 72.0 °F 41.0 °F 33% 29.85 in 10.0 mi West 8.1 mph - N/A   Clear
11:55 PM 71.1 °F 42.1 °F 35% 29.84 in 10.0 mi NW 4.6 mph - N/A   Clear